Location: Unspecified
(53.2170°N, 0.0000°E)
Time: 18:19:02
(UTC+00:00)

Cosmos 2285 Rocket - Visible Passes

Search period start: 04 April 2026 00:00
Search period end: 14 April 2026 00:00
Orbit: 970 x 998 km, 74.0° (Epoch: 29 March)

Date Brightness Start Highest point End Pass type
(mag) Time Alt. Az. Time Alt. Az. Time Alt. Az.
4 Apr 4.9 01:40:44 35° WNW 01:42:07 39° NW 01:48:03 10° NNE visible
4 Apr 6.1 03:27:20 10° WNW 03:30:53 15° NNW 03:34:26 10° N visible
4 Apr 5.6 22:38:27 20° ENE 22:38:27 20° ENE 22:41:40 10° NE visible
5 Apr 3.9 00:23:16 84° N 00:23:16 84° N 00:29:27 10° NNE visible
5 Apr 5.5 02:08:05 20° WNW 02:10:44 26° NW 02:16:01 10° NNE visible
5 Apr 6.3 03:57:38 10° NW 04:00:04 12° NNW 04:02:30 10° N visible
5 Apr 4.9 23:05:46 35° E 23:05:46 35° E 23:10:26 10° NE visible
6 Apr 4.4 00:50:34 52° W 00:51:16 55° WNW 00:57:32 10° NNE visible
6 Apr 6.0 02:35:23 10° WNW 02:39:36 19° NNW 02:43:58 10° NNE visible
6 Apr 6.4 04:27:43 10° NNW 04:29:22 11° N 04:31:01 10° NNE visible
6 Apr 6.0 21:48:15 13° ENE 21:48:15 13° ENE 21:49:52 10° ENE visible
6 Apr 4.1 23:33:03 61° E 23:33:03 61° E 23:38:49 10° NNE visible
7 Apr 5.1 01:17:51 30° W 01:19:44 35° NW 01:25:33 10° NNE visible
7 Apr 6.2 03:05:23 10° NW 03:08:40 14° NNW 03:11:56 10° N visible
7 Apr 5.4 22:15:29 23° E 22:15:29 23° E 22:19:24 10° NE visible
8 Apr 3.9 00:00:18 77° W 00:00:35 79° WNW 00:06:59 10° NNE visible
8 Apr 5.7 01:45:06 16° W 01:48:26 24° NW 01:53:30 10° NNE visible
8 Apr 6.4 03:35:41 10° NNW 03:37:53 12° N 03:40:03 10° N visible
8 Apr 4.6 22:42:42 41° E 22:42:42 41° E 22:48:03 10° NE visible
9 Apr 4.6 00:27:30 43° W 00:28:53 49° NW 00:35:03 10° NNE visible
9 Apr 6.1 02:13:13 10° WNW 02:17:20 17° NNW 02:21:26 10° NNE visible
9 Apr 6.5 04:05:35 10° NNW 04:07:10 11° N 04:08:46 10° NNE visible
9 Apr 5.7 21:25:04 15° E 21:25:04 15° E 21:27:54 10° NE visible
9 Apr 3.9 23:09:52 72° ESE 23:10:01 72° ESE 23:16:22 10° NNE visible
10 Apr 5.3 00:54:41 23° W 00:57:23 32° NW 01:03:02 10° NNE visible
10 Apr 6.4 02:43:26 10° NW 02:46:26 13° NNW 02:49:26 10° N visible
10 Apr 6.5 04:34:19 10° N 04:36:28 12° N 04:38:36 10° NNE visible
10 Apr 5.0 21:52:12 28° E 21:52:12 28° E 21:57:06 10° NE visible
10 Apr 4.1 23:37:00 58° WSW 23:38:08 71° WNW 23:44:31 10° NNE visible
11 Apr 5.9 01:21:47 12° W 01:26:08 22° NW 01:30:59 10° NNE visible
11 Apr 6.5 03:13:44 10° NNW 03:15:41 11° N 03:17:38 10° N visible
11 Apr 4.2 22:19:16 48° ESE 22:19:35 48° ESE 22:25:39 10° NE visible
12 Apr 4.9 00:04:03 31° W 00:06:29 44° NW 00:12:33 10° NNE visible
12 Apr 6.3 01:51:14 10° WNW 01:55:05 16° NNW 01:58:56 10° N visible
12 Apr 6.6 03:43:23 10° NNW 03:44:59 11° N 03:46:35 10° NNE visible
12 Apr 5.4 21:01:29 18° E 21:01:42 18° E 21:05:47 10° NE visible
12 Apr 3.9 22:46:16 60° S 22:47:32 81° ESE 22:53:55 10° NNE visible
13 Apr 5.6 00:31:03 16° W 00:35:03 29° NW 00:40:32 10° NNE visible
13 Apr 6.5 02:21:30 10° NW 02:24:14 13° NNW 02:26:57 10° N visible
13 Apr 6.6 04:11:54 10° N 04:14:16 12° NNE 04:16:38 10° NE visible
13 Apr 4.7 21:28:24 30° ESE 21:29:16 32° E 21:34:46 10° NE visible
13 Apr 4.3 23:13:11 37° SW 23:15:42 63° WNW 23:22:02 10° NNE visible
